This demonstration page uses our WeatherBlox Daily Observations layout. Learn more.

41.55636, -103.73856

Hourly Observations for May 14, 2016

Temp ( °F °C ) Dew Point ( °F °C ) Humidity (%) Winds ( mph kmh ) Pressure ( in mb ) Visibility ( mi km ) Precip ( " mm )
12:53 am 00:53 Clear 39 3.9 30 -1.1 70 70 NE 9 15 30.39 1029 10 16.0934 0 0
1:53 am 01:53 Clear 37 2.8 28 -2.2 70 70 ENE 7 11 30.39 1029 10 16.0934 0 0
2:53 am 02:53 Mostly Cloudy 34 1.1 28 -2.2 79 79 ESE 5 7 30.4 1030 10 16.0934 0 0
3:53 am 03:53 Partly Cloudy 36 2.2 28 -2.2 73 73 ESE 7 11 30.39 1029 10 16.0934 0 0
4:53 am 04:53 Cloudy 37 2.8 27 -2.8 67 67 undefined N/A 30.39 1029 10 16.0934 0 0
5:53 am 05:53 Cloudy 37 2.8 27 -2.8 67 67 E 6 9 30.4 1030 10 16.0934 0 0
6:53 am 06:53 Cloudy 37 2.8 26 -3.3 65 65 E 10 17 30.4 1029 10 16.0934 0 0
7:53 am 07:53 Cloudy 39 3.9 26 -3.3 60 60 E 8 13 30.39 1029 10 16.0934 0 0
8:53 am 08:53 Cloudy 41 5 27 -2.8 57 57 ESE 9 15 30.37 1029 10 16.0934 0 0
9:53 am 09:53 Cloudy 43 6.1 29 -1.7 58 58 SE 12 19 30.36 1028 10 16.0934 0 0
10:53 am 10:53 Cloudy 44 6.7 30 -1.1 58 58 ESE 10 17 30.34 1027 10 16.0934 0 0
11:53 am 11:53 Cloudy 44 6.7 30 -1.1 58 58 SE 7 11 30.33 1027 10 16.0934 0 0
12:53 pm 12:53 Cloudy 45 7.2 30 -1.1 56 56 E 8 13 30.32 1027 10 16.0934 0 0
1:53 pm 13:53 Cloudy 46 7.8 30 -1.1 54 54 ESE 9 15 30.29 1026 10 16.0934 0 0
2:53 pm 14:53 Cloudy 47 8.3 31 -0.6 54 54 SE 8 13 30.28 1025 10 16.0934 0 0
3:53 pm 15:53 Cloudy 47 8.3 31 -0.6 54 54 SE 7 11 30.27 1025 10 16.0934 0 0
4:53 pm 16:53 Cloudy 49 9.4 32 0 52 52 SE 9 15 30.23 1024 10 16.0934 0 0
5:53 pm 17:53 Cloudy 49 9.4 33 0.6 55 55 SE 8 13 30.22 1023 10 16.0934 0 0
6:53 pm 18:53 Mostly Cloudy 47 8.3 33 0.6 59 59 SSE 7 11 30.22 1023 10 16.0934 0 0
7:53 pm 19:53 Mostly Cloudy 45 7.2 33 0.6 63 63 SE 7 11 30.22 1024 10 16.0934 0 0
8:53 pm 20:53 Partly Cloudy 44 6.7 33 0.6 65 65 SE 6 9 30.22 1023 10 16.0934 0 0
9:53 pm 21:53 Cloudy 45 7.2 34 1.1 66 66 SSE 8 13 30.23 1024 10 16.0934 0 0
10:53 pm 22:53 Cloudy 46 7.8 35 1.7 66 66 SE 5 7 30.22 1023 10 16.0934 0 0
11:53 pm 23:53 Cloudy 46 7.8 36 2.2 68 68 SE 5 7 30.21 1023 10 16.0934 0 0

Powered by AerisWeather